• In Österreich
  • Länderverzeichnis
  • Für 7 Tage
  • Wassertemperatur
  • Satellitenkarten
  • Wetterkarte
  • News
  • Widgets
  • user-avatar
    Anmelden

    Stündliche Wetter Birmingham

    Heute, 22 Juli, Sonntag

    Zeit Temperatur Niederschläge Wind Luftdruck Luftfeuchtigkeit
    00:00 +16°C° 0 mm 1 m/S 748 mmHg 86%
    01:00 +15°C° 0 mm 1 m/S 748 mmHg 86%
    02:00 +15°C° 0 mm 1 m/S 748 mmHg 86%
    03:00 +15°C° 0 mm 1 m/S 748 mmHg 87%
    04:00 +15°C° 0 mm 1 m/S 748 mmHg 85%
    05:00 +16°C° 0 mm 1 m/S 749 mmHg 83%
    06:00 +16°C° 0 mm 1 m/S 749 mmHg 81%
    07:00 +17°C° 0 mm 2 m/S 749 mmHg 78%
    08:00 +18°C° 0 mm 2 m/S 749 mmHg 75%
    09:00 +19°C° 0 mm 2 m/S 749 mmHg 72%
    10:00 +21°C° 0 mm 2 m/S 749 mmHg 69%
    11:00 +23°C° 0 mm 2 m/S 749 mmHg 67%
    12:00 +24°C° 0 mm 2 m/S 749 mmHg 65%
    13:00 +25°C° 0 mm 2 m/S 749 mmHg 65%
    14:00 +25°C° 0 mm 2 m/S 749 mmHg 66%
    15:00 +26°C° 0 mm 2 m/S 749 mmHg 66%
    16:00 +26°C° 0 mm 2 m/S 749 mmHg 68%
    17:00 +26°C° 0 mm 2 m/S 749 mmHg 69%
    18:00 +25°C° 0 mm 2 m/S 749 mmHg 71%
    19:00 +24°C° 0 mm 2 m/S 749 mmHg 76%
    20:00 +23°C° 0 mm 1 m/S 749 mmHg 81%
    21:00 +22°C° 0 mm 1 m/S 749 mmHg 86%
    22:00 +21°C° 0 mm 1 m/S 750 mmHg 87%
    23:00 +21°C° 0 mm 1 m/S 750 mmHg 88%

    Morgen, 23 Juli, Montag

    Zeit Temperatur Niederschläge Wind Luftdruck Luftfeuchtigkeit
    00:00 +18°C° 0 mm 0 m/S 750 mmHg 89%
    01:00 +20°C° 0 mm 1 m/S 750 mmHg 90%
    02:00 +20°C° 0 mm 1 m/S 750 mmHg 90%
    03:00 +20°C° 0 mm 1 m/S 749 mmHg 91%
    04:00 +20°C° 0 mm 1 m/S 749 mmHg 90%
    05:00 +20°C° 0 mm 1 m/S 749 mmHg 89%
    06:00 +21°C° 0 mm 1 m/S 749 mmHg 89%
    07:00 +21°C° 0 mm 2 m/S 749 mmHg 83%
    08:00 +23°C° 0 mm 2 m/S 749 mmHg 77%
    09:00 +25°C° 0 mm 2 m/S 750 mmHg 71%
    10:00 +26°C° 0 mm 3 m/S 749 mmHg 68%
    11:00 +26°C° 0 mm 3 m/S 749 mmHg 65%
    12:00 +27°C° 0 mm 3 m/S 749 mmHg 63%
    13:00 +27°C° 0,1 mm 4 m/S 749 mmHg 63%
    14:00 +28°C° 0,1 mm 4 m/S 749 mmHg 63%
    15:00 +28°C° 0,1 mm 4 m/S 748 mmHg 62%
    16:00 +27°C° 0,1 mm 4 m/S 748 mmHg 65%
    17:00 +26°C° 0,1 mm 4 m/S 748 mmHg 67%
    18:00 +26°C° 0,1 mm 4 m/S 748 mmHg 69%
    19:00 +24°C° 0 mm 3 m/S 748 mmHg 74%
    20:00 +22°C° 0 mm 3 m/S 748 mmHg 80%
    21:00 +20°C° 0 mm 2 m/S 748 mmHg 86%
    22:00 +20°C° 0 mm 2 m/S 748 mmHg 88%
    23:00 +19°C° 0 mm 2 m/S 748 mmHg 90%

    übermorgen, 24 Juli, Dienstag

    Zeit Temperatur Niederschläge Wind Luftdruck Luftfeuchtigkeit
    00:00 +18°C° 0 mm 2 m/S 748 mmHg 92%
    01:00 +18°C° 0 mm 2 m/S 748 mmHg 92%
    02:00 +18°C° 0 mm 2 m/S 748 mmHg 92%
    03:00 +19°C° 0 mm 1 m/S 748 mmHg 92%
    04:00 +18°C° 0 mm 2 m/S 747 mmHg 90%
    05:00 +18°C° 0 mm 2 m/S 747 mmHg 89%
    06:00 +18°C° 0 mm 2 m/S 747 mmHg 88%
    07:00 +19°C° 0 mm 2 m/S 747 mmHg 82%
    08:00 +21°C° 0 mm 2 m/S 747 mmHg 76%
    09:00 +22°C° 0 mm 3 m/S 747 mmHg 70%
    10:00 +24°C° 0 mm 3 m/S 747 mmHg 66%
    11:00 +24°C° 0 mm 3 m/S 747 mmHg 62%
    12:00 +25°C° 0 mm 3 m/S 747 mmHg 58%
    13:00 +26°C° 0 mm 3 m/S 747 mmHg 56%
    14:00 +26°C° 0 mm 3 m/S 747 mmHg 55%
    15:00 +26°C° 0 mm 3 m/S 747 mmHg 54%
    16:00 +26°C° 0,1 mm 3 m/S 747 mmHg 57%
    17:00 +25°C° 0,1 mm 3 m/S 747 mmHg 60%
    18:00 +25°C° 0,1 mm 3 m/S 747 mmHg 63%
    19:00 +22°C° 0 mm 3 m/S 747 mmHg 71%
    20:00 +20°C° 0 mm 3 m/S 748 mmHg 78%
    21:00 +19°C° 0 mm 2 m/S 748 mmHg 85%
    22:00 +18°C° 0 mm 2 m/S 748 mmHg 87%
    23:00 +17°C° 0 mm 2 m/S 748 mmHg 88%

    25 Juli, Mittwoch

    Zeit Temperatur Niederschläge Wind Luftdruck Luftfeuchtigkeit
    00:00 +16°C° 0 mm 2 m/S 748 mmHg 90%
    01:00 +16°C° 0 mm 2 m/S 748 mmHg 89%
    02:00 +16°C° 0 mm 2 m/S 748 mmHg 89%
    03:00 +15°C° 0 mm 2 m/S 748 mmHg 89%
    04:00 +16°C° 0 mm 2 m/S 748 mmHg 87%
    05:00 +16°C° 0 mm 2 m/S 748 mmHg 85%
    06:00 +16°C° 0 mm 2 m/S 748 mmHg 83%
    07:00 +19°C° 0 mm 1 m/S 748 mmHg 77%
    08:00 +21°C° 0 mm 1 m/S 748 mmHg 71%
    09:00 +23°C° 0 mm 1 m/S 748 mmHg 66%
    10:00 +24°C° 0 mm 1 m/S 748 mmHg 62%
    11:00 +25°C° 0 mm 2 m/S 748 mmHg 58%
    12:00 +26°C° 0 mm 2 m/S 747 mmHg 54%
    13:00 +26°C° 0 mm 2 m/S 747 mmHg 54%
    14:00 +27°C° 0 mm 2 m/S 747 mmHg 53%
    15:00 +27°C° 0 mm 2 m/S 747 mmHg 53%
    16:00 +26°C° 0 mm 2 m/S 747 mmHg 55%
    17:00 +26°C° 0 mm 2 m/S 746 mmHg 57%
    18:00 +26°C° 0 mm 2 m/S 746 mmHg 59%
    19:00 +24°C° 0 mm 3 m/S 746 mmHg 66%
    20:00 +21°C° 0 mm 3 m/S 747 mmHg 72%
    21:00 +19°C° 0 mm 3 m/S 747 mmHg 78%
    22:00 +18°C° 0 mm 3 m/S 747 mmHg 80%
    23:00 +17°C° 0 mm 3 m/S 747 mmHg 82%

    26 Juli, Donnerstag

    Zeit Temperatur Niederschläge Wind Luftdruck Luftfeuchtigkeit
    00:00 +16°C° 0 mm 2 m/S 747 mmHg 84%
    01:00 +16°C° 0 mm 2 m/S 747 mmHg 85%
    02:00 +15°C° 0 mm 2 m/S 747 mmHg 86%
    03:00 +15°C° 0 mm 2 m/S 747 mmHg 87%
    04:00 +16°C° 0 mm 3 m/S 747 mmHg 86%
    05:00 +16°C° 0 mm 3 m/S 747 mmHg 86%
    06:00 +17°C° 0 mm 3 m/S 748 mmHg 86%
    07:00 +18°C° 0 mm 3 m/S 748 mmHg 80%
    08:00 +20°C° 0 mm 3 m/S 748 mmHg 74%
    09:00 +22°C° 0 mm 3 m/S 749 mmHg 69%
    10:00 +22°C° 0,1 mm 3 m/S 749 mmHg 66%
    11:00 +24°C° 0,1 mm 3 m/S 749 mmHg 62%
    12:00 +25°C° 0,1 mm 3 m/S 749 mmHg 59%
    13:00 +25°C° 0,1 mm 3 m/S 749 mmHg 59%
    14:00 +25°C° 0,1 mm 3 m/S 749 mmHg 58%
    15:00 +25°C° 0,1 mm 2 m/S 749 mmHg 57%
    16:00 +25°C° 0 mm 2 m/S 749 mmHg 59%
    17:00 +25°C° 0 mm 2 m/S 749 mmHg 60%
    18:00 +24°C° 0 mm 2 m/S 749 mmHg 61%
    19:00 +23°C° 0 mm 1 m/S 749 mmHg 67%
    20:00 +21°C° 0 mm 1 m/S 749 mmHg 72%
    21:00 +20°C° 0 mm 1 m/S 749 mmHg 77%
    22:00 +19°C° 0 mm 1 m/S 749 mmHg 80%
    23:00 +19°C° 0 mm 1 m/S 749 mmHg 82%

    27 Juli, Freitag

    Zeit Temperatur Niederschläge Wind Luftdruck Luftfeuchtigkeit
    00:00 +18°C° 0 mm 1 m/S 748 mmHg 85%
    01:00 +17°C° 0 mm 2 m/S 748 mmHg 87%
    02:00 +16°C° 0 mm 2 m/S 748 mmHg 89%
    03:00 +16°C° 0 mm 2 m/S 747 mmHg 91%
    04:00 +16°C° 0 mm 2 m/S 747 mmHg 89%
    05:00 +16°C° 0 mm 3 m/S 747 mmHg 88%
    06:00 +17°C° 0 mm 3 m/S 747 mmHg 87%
    07:00 +18°C° 0 mm 3 m/S 747 mmHg 79%
    08:00 +19°C° 0 mm 3 m/S 747 mmHg 72%
    09:00 +21°C° 0 mm 4 m/S 747 mmHg 65%
    10:00 +21°C° 0,1 mm 4 m/S 747 mmHg 64%
    11:00 +21°C° 0,1 mm 4 m/S 747 mmHg 63%
    12:00 +21°C° 0,1 mm 4 m/S 747 mmHg 63%
    13:00 +20°C° 0,5 mm 4 m/S 747 mmHg 70%
    14:00 +19°C° 0,5 mm 3 m/S 747 mmHg 77%
    15:00 +17°C° 0,5 mm 3 m/S 747 mmHg 84%
    16:00 +18°C° 0 mm 3 m/S 747 mmHg 80%
    17:00 +19°C° 0 mm 3 m/S 747 mmHg 77%
    18:00 +20°C° 0 mm 3 m/S 747 mmHg 73%
    19:00 +18°C° 0 mm 3 m/S 747 mmHg 77%
    20:00 +17°C° 0 mm 2 m/S 747 mmHg 81%
    21:00 +16°C° 0 mm 2 m/S 748 mmHg 85%
    22:00 +15°C° 0 mm 2 m/S 748 mmHg 86%
    23:00 +14°C° 0 mm 2 m/S 748 mmHg 88%
    Mehr zeigen